Home   Weather   Neuburg an der Donau   Past weeks

Flag for Germany Past Weather in Neuburg an der Donau, Bavaria, Germany — Yesterday and Last 2 Weeks

Now
61 °F

Cool.


Feels Like: 61 °F
Forecast: 50 / 75 °F
Wind: 1 mph from North

Location: Neuburg / Donau

Current Time: May 26, 2017 at 11:00:37 pm

Latest Report: May 26, 2017 at 10:20 pm


Visibility: N/A

Pressure: 30.12 "Hg

Humidity: 68%

Dew Point: 50 °F

Location of Neuburg an der DonauLocation

Past Weather in Neuburg an der Donau — Graph

°F

Neuburg an der Donau Temperature Yesterday

Maximum temperature yesterday: 66 °F (at 3:20 pm)
Minimum temperature yesterday: 46 °F (at 4:20 am)
Average temperature yesterday: 57 °F

High & Low Weather Summary for the Past Weeks

 TemperatureHumidityPressure
High79 °F (May 18, 2:20 pm)100% (May 15, 5:20 am)30.45 "Hg (May 15, 5:20 am)
Low43 °F (May 20, 3:20 am)36% (May 23, 5:20 pm)29.53 "Hg (May 11, 9:20 pm)
Average60 °F68%30.10 "Hg
* Reported May 11 9:20 pm — May 26 9:20 pm, Neuburg an der Donau. Weather by CustomWeather, © 2017

Note: Actual official high and low records may vary slightly from our data, if they occured in-between our weather recording intervals... More about our weather records

Advertising

Neuburg an der Donau Weather History for the Previous 24 Hours

Scroll right to see more
 ConditionsComfort  
Time TempWeatherWind HumidityBarometerVisibility
9:20 pm
Fri, May 26
70 °FMild.3 mph43%30.12 "HgN/A
8:20 pm72 °FPassing clouds.5 mph41%30.09 "HgN/A
7:20 pm73 °FPassing clouds.5 mph38%30.09 "HgN/A
5:20 pm75 °FPassing clouds.2 mph39%30.09 "HgN/A
4:20 pm73 °FPassing clouds.6 mph38%30.12 "HgN/A
3:20 pm72 °FPassing clouds.2 mph41%30.12 "HgN/A
2:20 pm72 °FPassing clouds.6 mph41%30.15 "HgN/A
1:20 pm70 °FPassing clouds.2 mph43%30.15 "HgN/A
12:20 pm68 °FPassing clouds.7 mph46%30.18 "HgN/A
10:20 am64 °FPassing clouds.8 mph52%30.18 "HgN/A
9:20 am61 °FCool.6 mph63%30.18 "HgN/A
8:20 am57 °FCool.6 mph72%30.18 "HgN/A
7:20 am54 °FCool.3 mph72%30.18 "HgN/A
6:20 am46 °FCool.2 mph93%30.15 "HgN/A
5:20 am45 °FFog.1 mph93%30.15 "HgN/A
4:20 am45 °FFog.1 mph93%30.15 "HgN/A
3:20 am48 °FPassing clouds.1 mph87%30.15 "HgN/A
2:20 am46 °FPassing clouds.1 mph87%30.15 "HgN/A
1:20 am48 °FPassing clouds.1 mph87%30.15 "HgN/A
12:20 am50 °FPassing clouds.2 mph82%30.15 "HgN/A
11:20 pm
Thu, May 25
52 °FPassing clouds.1 mph82%30.18 "HgN/A
Weather by CustomWeather, © 2017

See weather overviewHow to use our weather pages